User: anonymous   Login
Location: Unspecified
(0.0000°N, 0.0000°E)
Time: 01:33:41
(UTC+00:00)
Language:

OUFTI-1 - Orbit

View from above orbital plane
View from above orbital plane
View from above satellite
View from above satellite

Ground track
Ground track

The orbit data is extracted from the following two-line orbital elements,

1 41458U 16025C   18174.55613134 +.00001808 +00000-0 +96883-4 0  9990
2 41458 098.1365 237.7472 0171441 126.0668 235.6578 15.04693052118400
Epoch (UTC): 23 June 2018 13:20:49
Eccentricity: 0.0171441
inclination: 98.1365°
perigee height: 433 km
apogee height: 671 km
right ascension of ascending node: 237.7472°
argument of perigee: 126.0668°
revolutions per day: 15.04693052
mean anomaly at epoch: 235.6578°
orbit number at epoch: 11840

The dashed part of the orbit path shows where the satellite is in the earth's shadow,  

DLR